Location: Gwatt
(46.7204°N, 7.6223°E)
Time: 22:03:52
(UTC+00:00)

Vanguard 2 Rocket - Pass Details

Date: 03 February 2021
Orbit: 554 x 3326 km, 32.9° (Epoch: 25 February)

Event Time Altitude Azimuth Distance (km) Brightness Sun altitude
Rises 16:44:41 0° 273° (W) 6,616 12.7 -2.2°
Reaches altitude 10° 16:50:39 10° 262° (W) 5,140 12.5 -3.1°
Maximum altitude 17:00:35 24° 217° (SW) 3,175 10.5 -4.7°
Drops below altitude 10° 17:07:24 10° 167° (SSE) 3,392 9.9 -5.8°
Sets 17:10:24 0° 153° (SSE) 4,005 10.1 -6.3°
